Total_Precipitation_Accumulation
0.02 0.04 0.08 0.07 0.09 0.11 0.14 0.20 0.25 0.35 0.29 0.27 0.41 0.66 0.78 0.80 0.83 0.97 1.14 1.15 1.19 1.31 1.70 2.18 2.71 3.21 3.87 4.79 5.76 6.20 6.09 5.51 5.01 4.58 4.17 3.93 3.63 3.36 3.22 2.90 2.53 2.48 2.46 2.49
0.04 0.06 0.05 0.05 0.06 0.10 0.15 0.22 0.26 0.33 0.27 0.31 0.45 0.69 0.90 1.00 1.07 1.00 1.05 1.17 1.13 1.30 1.76 2.28 2.88 3.27 3.60 4.14 4.91 5.30 5.04 4.44 3.80 3.53 3.46 3.39 3.34 2.98 2.75 2.65 2.58 2.30 2.32 2.39
0.04 0.06 0.04 0.04 0.05 0.11 0.15 0.20 0.26 0.32 0.28 0.38 0.52 0.95 1.23 1.25 1.02 0.81 0.73 0.88 0.91 1.03 1.55 2.29 2.84 3.13 3.40 3.61 3.60 3.76 3.72 3.29 2.96 2.86 2.85 2.88 3.04 2.82 2.53 2.45 2.38 2.14 2.06 2.03
0.03 0.03 0.03 0.04 0.06 0.10 0.15 0.13 0.14 0.21 0.32 0.53 0.60 1.36 1.60 1.36 1.13 0.90 0.72 0.73 0.78 0.94 1.40 2.15 2.45 2.57 2.63 2.71 2.51 2.53 2.67 2.59 2.56 2.46 2.47 2.39 2.27 2.26 2.17 2.15 2.11 2.06 1.93 1.85
0.04 0.03 0.03 0.04 0.05 0.10 0.14 0.11 0.12 0.20 0.34 0.52 0.73 1.23 1.64 1.46 1.28 0.96 0.71 0.67 0.76 0.84 1.10 1.44 1.51 1.67 1.76 1.81 1.83 2.03 2.34 2.46 2.38 2.31 2.41 2.42 2.14 2.02 1.94 1.98 2.10 2.04 1.92 1.78
0.06 0.06 0.04 0.04 0.05 0.07 0.10 0.14 0.20 0.35 0.54 0.93 0.94 1.12 1.57 1.39 1.12 0.78 0.65 0.65 0.58 0.61 0.80 0.99 1.05 1.13 1.21 1.25 1.37 1.61 2.08 2.30 2.20 2.14 2.17 2.14 2.09 2.07 1.98 1.92 1.97 1.94 1.86 1.86
0.11 0.09 0.10 0.08 0.09 0.11 0.11 0.16 0.42 0.85 1.29 1.41 0.90 1.06 1.39 1.04 0.76 0.57 0.48 0.50 0.52 0.65 0.72 0.83 1.00 1.06 0.98 0.94 1.08 1.30 1.64 1.80 1.78 1.85 1.96 2.02 2.10 2.07 1.92 1.86 1.80 1.77 1.63 1.71
0.15 0.17 0.14 0.09 0.07 0.10 0.13 0.15 0.31 0.60 0.74 0.88 0.88 1.32 1.44 0.85 0.59 0.47 0.43 0.44 0.55 0.64 0.62 0.65 0.75 0.75 0.73 0.81 0.90 1.07 1.25 1.34 1.44 1.56 1.75 1.90 1.93 1.90 1.85 1.97 1.84 1.70 1.52 1.48
0.07 0.08 0.07 0.06 0.07 0.08 0.11 0.12 0.14 0.20 0.31 0.63 1.02 1.28 1.18 0.79 0.53 0.42 0.40 0.39 0.49 0.51 0.46 0.46 0.52 0.56 0.62 0.79 0.90 0.97 1.06 1.17 1.29 1.40 1.65 1.79 1.79 1.73 1.76 1.85 1.77 1.61 1.61 1.53
0.04 0.04 0.05 0.06 0.07 0.08 0.10 0.10 0.11 0.16 0.33 0.62 0.99 1.39 1.33 0.99 0.70 0.59 0.46 0.38 0.45 0.45 0.41 0.45 0.49 0.56 0.58 0.62 0.80 0.91 0.97 1.12 1.28 1.37 1.43 1.46 1.58 1.56 1.55 1.50 1.49 1.56 1.60 1.58
0.04 0.04 0.04 0.06 0.09 0.10 0.09 0.09 0.10 0.12 0.19 0.42 0.82 1.10 0.87 0.73 0.58 0.59 0.54 0.49 0.49 0.51 0.50 0.48 0.56 0.58 0.58 0.59 0.74 0.86 0.92 1.02 1.12 1.14 1.17 1.27 1.35 1.35 1.32 1.32 1.30 1.41 1.47 1.52
0.04 0.05 0.06 0.09 0.11 0.10 0.09 0.08 0.09 0.13 0.16 0.23 0.50 0.69 0.51 0.53 0.48 0.54 0.58 0.61 0.63 0.64 0.63 0.62 0.67 0.63 0.66 0.69 0.73 0.82 0.80 0.83 0.90 0.97 1.02 1.09 1.20 1.21 1.20 1.24 1.39 1.47 1.46 1.41
0.04 0.06 0.08 0.19 0.24 0.18 0.11 0.09 0.11 0.12 0.13 0.18 0.46 0.70 0.50 0.50 0.57 0.61 0.60 0.68 0.69 0.62 0.66 0.82 0.84 0.70 0.70 0.72 0.73 0.76 0.73 0.77 0.82 0.87 0.90 0.95 1.10 1.26 1.33 1.38 1.45 1.54 1.55 1.49
0.06 0.06 0.07 0.19 0.26 0.26 0.20 0.15 0.14 0.14 0.15 0.18 0.30 0.51 0.47 0.46 0.56 0.66 0.60 0.63 0.69 0.66 0.68 0.85 0.94 0.75 0.66 0.66 0.67 0.69 0.69 0.65 0.64 0.75 0.89 0.98 1.18 1.40 1.50 1.52 1.54 1.55 1.56 1.54
0.07 0.07 0.06 0.07 0.13 0.19 0.21 0.18 0.15 0.12 0.13 0.20 0.28 0.42 0.53 0.63 0.65 0.60 0.60 0.67 0.64 0.70 0.71 0.71 0.76 0.69 0.66 0.66 0.66 0.67 0.69 0.69 0.71 0.88 1.01 1.16 1.38 1.47 1.52 1.60 1.62 1.67 1.70 1.61
0.10 0.09 0.08 0.08 0.14 0.15 0.16 0.19 0.14 0.10 0.10 0.17 0.28 0.45 0.55 0.57 0.67 0.69 0.62 0.61 0.67 0.74 0.77 0.86 0.86 0.82 0.86 0.81 0.78 0.79 0.81 0.88 1.01 1.16 1.29 1.37 1.46 1.54 1.50 1.50 1.53 1.67 1.74 1.81
0.18 0.18 0.18 0.17 0.19 0.20 0.22 0.21 0.16 0.14 0.17 0.23 0.31 0.46 0.57 0.65 0.78 0.87 0.85 0.77 0.79 0.90 0.93 1.03 1.09 1.05 1.06 1.00 0.99 1.09 1.08 1.16 1.32 1.48 1.65 1.66 1.64 1.68 1.67 1.70 1.72 1.74 1.87 1.98
0.27 0.29 0.26 0.24 0.29 0.40 0.31 0.24 0.21 0.22 0.24 0.28 0.39 0.53 0.66 0.77 0.81 0.95 1.04 1.00 0.92 0.89 0.95 1.07 1.15 1.13 1.07 1.08 1.14 1.37 1.49 1.49 1.61 1.72 1.83 1.92 1.94 2.01 2.07 2.15 2.13 2.17 2.22 2.27
0.29 0.39 0.39 0.38 0.47 0.46 0.40 0.34 0.30 0.33 0.44 0.44 0.55 0.79 0.92 0.93 1.07 1.27 1.19 1.05 1.03 1.07 1.06 1.20 1.20 1.17 1.17 1.34 1.41 1.48 1.59 1.61 1.79 1.98 2.12 2.19 2.24 2.25 2.27 2.29 2.40 2.53 2.67 2.71
0.35 0.38 0.48 0.46 0.56 0.64 0.60 0.48 0.45 0.57 1.06 0.89 0.87 0.94 0.92 1.01 1.42 1.47 1.13 1.00 1.06 1.09 1.20 1.33 1.35 1.32 1.40 1.66 1.72 1.80 1.88 1.94 2.02 2.13 2.30 2.49 2.58 2.60 2.57 2.63 2.78 2.94 3.11 3.13
0.61 0.62 0.58 0.55 0.64 0.71 0.65 0.55 0.62 1.17 1.60 1.30 1.17 1.13 1.16 1.34 1.39 1.36 1.22 1.08 1.03 1.06 1.17 1.32 1.37 1.38 1.47 1.67 1.87 2.14 2.29 2.33 2.33 2.38 2.50 2.63 2.73 2.86 2.90 2.99 3.08 3.25 3.36 3.32
0.89 0.93 0.91 0.88 1.01 1.08 0.72 0.73 1.11 1.44 1.28 1.37 1.49 1.52 1.48 1.48 1.30 1.21 1.18 1.21 1.17 1.16 1.21 1.28 1.41 1.49 1.60 1.74 1.99 2.20 2.38 2.54 2.64 2.63 2.75 2.80 2.80 2.72 2.71 2.94 3.14 3.33 3.52 3.48
1.12 1.15 1.18 1.23 1.36 1.22 0.95 1.03 1.11 1.09 1.24 1.35 1.44 1.58 1.63 1.59 1.58 1.42 1.38 1.38 1.32 1.24 1.18 1.21 1.29 1.42 1.53 1.63 1.83 2.22 2.35 2.41 2.48 2.58 2.63 2.74 2.79 2.83 2.88 3.07 3.23 3.43 3.53 3.48
1.18 1.15 1.27 1.41 1.48 1.37 1.27 1.29 1.31 1.32 1.38 1.40 1.42 1.51 1.57 1.58 1.66 1.58 1.44 1.31 1.21 1.15 1.13 1.19 1.27 1.38 1.46 1.44 1.59 1.81 2.04 2.17 2.20 2.22 2.25 2.26 2.38 2.55 2.77 3.07 3.17 3.23 3.29 3.31
1.32 1.27 1.42 1.79 1.88 1.86 1.73 1.71 1.68 1.59 1.64 1.70 1.62 1.57 1.60 1.50 1.48 1.47 1.29 1.18 1.15 1.15 1.11 1.17 1.35 1.36 1.39 1.46 1.49 1.54 1.60 1.81 1.96 1.96 1.98 2.08 2.18 2.36 2.56 2.78 2.94 2.90 2.93 3.12
1.61 1.55 1.61 1.91 1.93 2.11 2.09 1.88 1.81 1.69 1.72 1.74 1.69 1.58 1.51 1.46 1.43 1.34 1.22 1.13 1.12 1.11 1.14 1.20 1.30 1.30 1.29 1.38 1.45 1.48 1.58 1.74 1.81 1.76 1.77 1.81 1.85 2.00 2.18 2.34 2.46 2.48 2.27 2.34